Time,TemperatureF,DewpointF,PressureIn,WindDirection,WindDirectionDegrees,WindSpeedMPH,WindSpeedGustMPH,Humidity,HourlyPrecipIn,Conditions,Clouds,dailyrainin,SolarRadiationWatts/m^2,SoftwareType,DateUTC
2013-03-01 00:02:00,39.0,28.0,-100.00,WNW,296,9.0,16.0,65,0.00,,,0.00,0.000000,,2013-03-01 05:02:00,
2013-03-01 00:11:00,39.0,28.0,-100.00,WNW,296,9.0,16.0,65,0.00,,,0.00,0.000000,,2013-03-01 05:11:00,
2013-03-01 00:33:00,39.0,27.0,-100.00,WNW,299,8.0,17.0,63,0.00,,,0.00,0.000000,,2013-03-01 05:33:00,
2013-03-01 00:42:00,39.0,27.0,-100.00,WNW,299,8.0,17.0,63,0.00,,,0.00,0.000000,,2013-03-01 05:42:00,
2013-03-01 00:53:00,39.0,27.0,-100.00,WNW,299,8.0,17.0,63,0.00,,,0.00,0.000000,,2013-03-01 05:53:00,
2013-03-01 01:02:00,39.0,27.0,-100.00,WNW,299,8.0,17.0,63,0.00,,,0.00,0.000000,,2013-03-01 06:02:00,
2013-03-01 01:12:00,39.0,27.0,-100.00,WNW,299,8.0,17.0,63,0.00,,,0.00,0.000000,,2013-03-01 06:12:00,
2013-03-01 01:32:00,39.0,27.0,-100.00,WNW,301,6.0,15.0,63,0.00,,,0.00,0.000000,,2013-03-01 06:32:00,
2013-03-01 01:43:00,39.0,27.0,-100.00,WNW,301,6.0,15.0,63,0.00,,,0.00,0.000000,,2013-03-01 06:43:00,
2013-03-01 01:53:00,39.0,27.0,-100.00,WNW,301,6.0,15.0,63,0.00,,,0.00,0.000000,,2013-03-01 06:53:00,
2013-03-01 02:02:00,39.0,27.0,-100.00,WNW,301,6.0,15.0,63,0.00,,,0.00,0.000000,,2013-03-01 07:02:00,
2013-03-01 02:12:00,39.0,27.0,-100.00,WNW,301,6.0,15.0,63,0.00,,,0.00,0.000000,,2013-03-01 07:12:00,
2013-03-01 02:33:00,39.0,27.0,-100.00,NW,308,8.0,14.0,62,0.00,,,0.00,0.000000,,2013-03-01 07:33:00,
2013-03-01 02:42:00,39.0,27.0,-100.00,NW,308,8.0,14.0,62,0.00,,,0.00,0.000000,,2013-03-01 07:42:00,
2013-03-01 02:52:00,39.0,27.0,-100.00,NW,308,8.0,14.0,62,0.00,,,0.00,0.000000,,2013-03-01 07:52:00,
2013-03-01 03:02:00,39.0,27.0,-100.00,NW,308,8.0,14.0,62,0.00,,,0.00,0.000000,,2013-03-01 08:02:00,
2013-03-01 03:12:00,39.0,27.0,-100.00,NW,308,8.0,14.0,62,0.00,,,0.00,0.000000,,2013-03-01 08:12:00,
2013-03-01 03:33:00,38.0,27.0,-100.00,WNW,295,5.0,14.0,63,0.00,,,0.00,0.000000,,2013-03-01 08:33:00,
2013-03-01 03:43:00,38.0,27.0,-100.00,WNW,295,5.0,14.0,63,0.00,,,0.00,0.000000,,2013-03-01 08:43:00,
2013-03-01 03:53:00,38.0,27.0,-100.00,WNW,295,5.0,14.0,63,0.00,,,0.00,0.000000,,2013-03-01 08:53:00,
2013-03-01 04:02:00,38.0,27.0,-100.00,WNW,295,5.0,14.0,63,0.00,,,0.00,0.000000,,2013-03-01 09:02:00,
2013-03-01 04:12:00,38.0,27.0,-100.00,WNW,295,5.0,14.0,63,0.00,,,0.00,0.000000,,2013-03-01 09:12:00,
2013-03-01 04:32:00,38.0,27.0,-100.00,NW,306,8.0,15.0,65,0.00,,,0.00,0.000000,,2013-03-01 09:32:00,
2013-03-01 04:42:00,38.0,27.0,-100.00,NW,306,8.0,15.0,65,0.00,,,0.00,0.000000,,2013-03-01 09:42:00,
2013-03-01 04:53:00,38.0,27.0,-100.00,NW,306,8.0,15.0,65,0.00,,,0.00,0.000000,,2013-03-01 09:53:00,
2013-03-01 05:02:00,38.0,27.0,-100.00,NW,306,8.0,15.0,65,0.00,,,0.00,0.000000,,2013-03-01 10:02:00,
2013-03-01 05:12:00,38.0,27.0,-100.00,NW,306,8.0,15.0,65,0.00,,,0.00,0.000000,,2013-03-01 10:12:00,
2013-03-01 05:32:00,38.0,28.0,-100.00,NW,311,7.0,18.0,66,0.00,,,0.00,0.000000,,2013-03-01 10:32:00,
2013-03-01 05:42:00,38.0,28.0,-100.00,NW,311,7.0,18.0,66,0.00,,,0.00,0.000000,,2013-03-01 10:42:00,
2013-03-01 05:53:00,38.0,28.0,-100.00,NW,311,7.0,18.0,66,0.00,,,0.00,0.000000,,2013-03-01 10:53:00,
2013-03-01 06:02:00,38.0,28.0,-100.00,NW,311,7.0,18.0,66,0.00,,,0.00,0.000000,,2013-03-01 11:02:00,
2013-03-01 06:11:00,38.0,28.0,-100.00,NW,311,7.0,18.0,66,0.00,,,0.00,0.000000,,2013-03-01 11:11:00,
2013-03-01 06:32:00,37.0,27.0,-100.00,WNW,296,7.0,15.0,66,0.00,,,0.00,0.000000,,2013-03-01 11:32:00,
2013-03-01 06:42:00,37.0,27.0,-100.00,WNW,296,7.0,15.0,66,0.00,,,0.00,0.000000,,2013-03-01 11:42:00,
2013-03-01 06:53:00,37.0,27.0,-100.00,WNW,296,7.0,15.0,66,0.00,,,0.00,0.000000,,2013-03-01 11:53:00,
2013-03-01 07:02:00,37.0,27.0,-100.00,WNW,296,7.0,15.0,66,0.00,,,0.00,0.000000,,2013-03-01 12:02:00,
2013-03-01 07:11:00,37.0,27.0,-100.00,WNW,296,7.0,15.0,66,0.00,,,0.00,0.000000,,2013-03-01 12:11:00,
2013-03-01 07:33:00,37.0,27.0,-100.00,WNW,294,7.0,16.0,66,0.00,,,0.00,3.000000,,2013-03-01 12:33:00,
2013-03-01 07:42:00,37.0,27.0,-100.00,WNW,294,7.0,16.0,66,0.00,,,0.00,3.000000,,2013-03-01 12:42:00,
2013-03-01 07:52:00,37.0,27.0,-100.00,WNW,294,7.0,16.0,66,0.00,,,0.00,3.000000,,2013-03-01 12:52:00,
2013-03-01 08:01:00,37.0,27.0,-100.00,WNW,294,7.0,16.0,66,0.00,,,0.00,3.000000,,2013-03-01 13:01:00,
2013-03-01 08:11:00,37.0,27.0,-100.00,WNW,294,7.0,16.0,66,0.00,,,0.00,3.000000,,2013-03-01 13:11:00,
2013-03-01 08:32:00,38.0,27.0,-100.00,WNW,293,7.0,16.0,64,0.00,,,0.00,41.000000,,2013-03-01 13:32:00,
2013-03-01 08:42:00,38.0,27.0,-100.00,WNW,293,7.0,16.0,64,0.00,,,0.00,41.000000,,2013-03-01 13:42:00,
2013-03-01 08:52:00,38.0,27.0,-100.00,WNW,293,7.0,16.0,64,0.00,,,0.00,41.000000,,2013-03-01 13:52:00,
2013-03-01 09:02:00,38.0,27.0,-100.00,WNW,293,7.0,16.0,64,0.00,,,0.00,41.000000,,2013-03-01 14:02:00,
2013-03-01 09:11:00,38.0,27.0,-100.00,WNW,293,7.0,16.0,64,0.00,,,0.00,41.000000,,2013-03-01 14:11:00,
2013-03-01 09:32:00,38.0,27.0,-100.00,WNW,291,10.0,18.0,64,0.00,,,0.00,113.000000,,2013-03-01 14:32:00,
2013-03-01 09:42:00,38.0,27.0,-100.00,WNW,291,10.0,18.0,64,0.00,,,0.00,113.000000,,2013-03-01 14:42:00,
2013-03-01 09:52:00,38.0,27.0,-100.00,WNW,291,10.0,18.0,64,0.00,,,0.00,113.000000,,2013-03-01 14:52:00,
2013-03-01 10:02:00,38.0,27.0,-100.00,WNW,291,10.0,18.0,64,0.00,,,0.00,113.000000,,2013-03-01 15:02:00,
2013-03-01 10:11:00,38.0,27.0,-100.00,WNW,291,10.0,18.0,64,0.00,,,0.00,113.000000,,2013-03-01 15:11:00,
2013-03-01 10:32:00,39.0,28.0,-100.00,WNW,298,9.0,20.0,64,0.00,,,0.00,175.000000,,2013-03-01 15:32:00,
2013-03-01 10:42:00,39.0,28.0,-100.00,WNW,298,9.0,20.0,64,0.00,,,0.00,175.000000,,2013-03-01 15:42:00,
2013-03-01 10:52:00,39.0,28.0,-100.00,WNW,298,9.0,20.0,64,0.00,,,0.00,175.000000,,2013-03-01 15:52:00,
2013-03-01 11:01:00,39.0,28.0,-100.00,WNW,298,9.0,20.0,64,0.00,,,0.00,175.000000,,2013-03-01 16:01:00,
2013-03-01 11:11:00,39.0,28.0,-100.00,WNW,298,9.0,20.0,64,0.00,,,0.00,175.000000,,2013-03-01 16:11:00,
2013-03-01 11:32:00,40.0,28.0,-100.00,WNW,302,9.0,15.0,62,0.00,,,0.00,220.000000,,2013-03-01 16:32:00,
2013-03-01 11:42:00,40.0,28.0,-100.00,WNW,302,9.0,15.0,62,0.00,,,0.00,220.000000,,2013-03-01 16:42:00,
2013-03-01 11:52:00,40.0,28.0,-100.00,WNW,302,9.0,15.0,62,0.00,,,0.00,220.000000,,2013-03-01 16:52:00,
2013-03-01 12:01:00,40.0,28.0,-100.00,WNW,302,9.0,15.0,62,0.00,,,0.00,220.000000,,2013-03-01 17:01:00,
2013-03-01 12:11:00,40.0,28.0,-100.00,WNW,302,9.0,15.0,62,0.00,,,0.00,220.000000,,2013-03-01 17:11:00,
2013-03-01 12:32:00,42.0,27.0,-100.00,WNW,291,11.0,19.0,54,0.00,,,0.00,364.000000,,2013-03-01 17:32:00,
2013-03-01 12:42:00,42.0,27.0,-100.00,WNW,291,11.0,19.0,54,0.00,,,0.00,364.000000,,2013-03-01 17:42:00,
2013-03-01 12:52:00,42.0,27.0,-100.00,WNW,291,11.0,19.0,54,0.00,,,0.00,364.000000,,2013-03-01 17:52:00,
2013-03-01 13:02:00,42.0,27.0,-100.00,WNW,291,11.0,19.0,54,0.00,,,0.00,364.000000,,2013-03-01 18:02:00,
2013-03-01 13:12:00,42.0,27.0,-100.00,WNW,291,11.0,19.0,54,0.00,,,0.00,364.000000,,2013-03-01 18:12:00,
2013-03-01 13:32:00,42.0,25.0,-100.00,WNW,291,9.0,17.0,50,0.00,,,0.00,317.000000,,2013-03-01 18:32:00,
2013-03-01 13:42:00,42.0,25.0,-100.00,WNW,291,9.0,17.0,50,0.00,,,0.00,317.000000,,2013-03-01 18:42:00,
2013-03-01 13:52:00,42.0,25.0,-100.00,WNW,291,9.0,17.0,50,0.00,,,0.00,317.000000,,2013-03-01 18:52:00,
2013-03-01 14:02:00,42.0,25.0,-100.00,WNW,291,9.0,17.0,50,0.00,,,0.00,317.000000,,2013-03-01 19:02:00,
2013-03-01 14:11:00,42.0,25.0,-100.00,WNW,291,9.0,17.0,50,0.00,,,0.00,317.000000,,2013-03-01 19:11:00,
2013-03-01 14:32:00,42.0,26.0,-100.00,WNW,292,8.0,17.0,53,0.00,,,0.00,208.000000,,2013-03-01 19:32:00,
2013-03-01 14:42:00,42.0,26.0,-100.00,WNW,292,8.0,17.0,53,0.00,,,0.00,208.000000,,2013-03-01 19:42:00,
2013-03-01 14:52:00,42.0,26.0,-100.00,WNW,292,8.0,17.0,53,0.00,,,0.00,208.000000,,2013-03-01 19:52:00,
2013-03-01 15:01:00,42.0,26.0,-100.00,WNW,292,8.0,17.0,53,0.00,,,0.00,208.000000,,2013-03-01 20:01:00,
2013-03-01 15:11:00,42.0,26.0,-100.00,WNW,292,8.0,17.0,53,0.00,,,0.00,208.000000,,2013-03-01 20:11:00,
2013-03-01 15:32:00,41.0,24.0,-100.00,WNW,297,9.0,17.0,50,0.00,,,0.00,251.000000,,2013-03-01 20:32:00,
2013-03-01 15:42:00,41.0,24.0,-100.00,WNW,297,9.0,17.0,50,0.00,,,0.00,251.000000,,2013-03-01 20:42:00,
2013-03-01 15:52:00,41.0,24.0,-100.00,WNW,297,9.0,17.0,50,0.00,,,0.00,251.000000,,2013-03-01 20:52:00,
2013-03-01 16:02:00,41.0,24.0,-100.00,WNW,297,9.0,17.0,50,0.00,,,0.00,251.000000,,2013-03-01 21:02:00,
2013-03-01 16:11:00,41.0,24.0,-100.00,WNW,297,9.0,17.0,50,0.00,,,0.00,251.000000,,2013-03-01 21:11:00,
2013-03-01 16:32:00,39.0,23.0,-100.00,NW,316,8.0,21.0,53,0.00,,,0.00,136.000000,,2013-03-01 21:32:00,
2013-03-01 16:42:00,39.0,23.0,-100.00,NW,316,8.0,21.0,53,0.00,,,0.00,136.000000,,2013-03-01 21:42:00,
2013-03-01 16:52:00,39.0,23.0,-100.00,NW,316,8.0,21.0,53,0.00,,,0.00,136.000000,,2013-03-01 21:52:00,
2013-03-01 17:01:00,39.0,23.0,-100.00,NW,316,8.0,21.0,53,0.00,,,0.00,136.000000,,2013-03-01 22:01:00,
2013-03-01 17:12:00,39.0,23.0,-100.00,NW,316,8.0,21.0,53,0.00,,,0.00,136.000000,,2013-03-01 22:12:00,
2013-03-01 17:32:00,38.0,24.0,-100.00,NW,305,7.0,16.0,57,0.00,,,0.00,57.000000,,2013-03-01 22:32:00,
2013-03-01 17:42:00,38.0,24.0,-100.00,NW,305,7.0,16.0,57,0.00,,,0.00,57.000000,,2013-03-01 22:42:00,
2013-03-01 17:52:00,38.0,24.0,-100.00,NW,305,7.0,16.0,57,0.00,,,0.00,57.000000,,2013-03-01 22:52:00,
2013-03-01 18:01:00,38.0,24.0,-100.00,NW,305,7.0,16.0,57,0.00,,,0.00,57.000000,,2013-03-01 23:01:00,
2013-03-01 18:11:00,38.0,24.0,-100.00,NW,305,7.0,16.0,57,0.00,,,0.00,57.000000,,2013-03-01 23:11:00,
2013-03-01 18:32:00,36.0,25.0,-100.00,NNW,330,8.0,22.0,65,0.00,,,0.00,16.000000,,2013-03-01 23:32:00,
2013-03-01 18:42:00,36.0,25.0,-100.00,NNW,330,8.0,22.0,65,0.00,,,0.00,16.000000,,2013-03-01 23:42:00,
2013-03-01 18:52:00,36.0,25.0,-100.00,NNW,330,8.0,22.0,65,0.00,,,0.00,16.000000,,2013-03-01 23:52:00,
2013-03-01 19:02:00,36.0,25.0,-100.00,NNW,330,8.0,22.0,65,0.00,,,0.00,16.000000,,2013-03-02 00:02:00,
2013-03-01 19:12:00,36.0,25.0,-100.00,NNW,330,8.0,22.0,65,0.00,,,0.00,16.000000,,2013-03-02 00:12:00,
2013-03-01 19:42:00,35.0,25.0,-100.00,NW,321,7.0,16.0,66,0.00,,,0.00,0.000000,,2013-03-02 00:42:00,
2013-03-01 19:52:00,35.0,25.0,-100.00,NW,321,7.0,16.0,66,0.00,,,0.00,0.000000,,2013-03-02 00:52:00,
2013-03-01 20:01:00,35.0,25.0,-100.00,NW,321,7.0,16.0,66,0.00,,,0.00,0.000000,,2013-03-02 01:01:00,
2013-03-01 20:11:00,35.0,25.0,-100.00,NW,321,7.0,16.0,66,0.00,,,0.00,0.000000,,2013-03-02 01:11:00,
2013-03-01 20:42:00,35.0,24.0,-100.00,NW,326,7.0,14.0,63,0.00,,,0.00,0.000000,,2013-03-02 01:42:00,
2013-03-01 20:52:00,35.0,24.0,-100.00,NW,326,7.0,14.0,63,0.00,,,0.00,0.000000,,2013-03-02 01:52:00,
2013-03-01 21:01:00,35.0,24.0,-100.00,NW,326,7.0,14.0,63,0.00,,,0.00,0.000000,,2013-03-02 02:01:00,
2013-03-01 21:11:00,35.0,24.0,-100.00,NW,326,7.0,14.0,63,0.00,,,0.00,0.000000,,2013-03-02 02:11:00,
2013-03-01 21:32:00,35.0,23.0,-100.00,NNW,335,9.0,14.0,61,0.00,,,0.00,0.000000,,2013-03-02 02:32:00,
2013-03-01 21:42:00,35.0,23.0,-100.00,NNW,335,9.0,14.0,61,0.00,,,0.00,0.000000,,2013-03-02 02:42:00,
2013-03-01 21:52:00,35.0,23.0,-100.00,NNW,335,9.0,14.0,61,0.00,,,0.00,0.000000,,2013-03-02 02:52:00,
2013-03-01 22:02:00,35.0,23.0,-100.00,NNW,335,9.0,14.0,61,0.00,,,0.00,0.000000,,2013-03-02 03:02:00,
2013-03-01 22:11:00,35.0,23.0,-100.00,NNW,335,9.0,14.0,61,0.00,,,0.00,0.000000,,2013-03-02 03:11:00,
2013-03-01 22:32:00,34.0,20.0,-100.00,NNW,342,10.0,16.0,57,0.00,,,0.00,0.000000,,2013-03-02 03:32:00,
2013-03-01 22:42:00,34.0,20.0,-100.00,NNW,342,10.0,16.0,57,0.00,,,0.00,0.000000,,2013-03-02 03:42:00,
2013-03-01 22:53:00,34.0,20.0,-100.00,NNW,342,10.0,16.0,57,0.00,,,0.00,0.000000,,2013-03-02 03:53:00,
2013-03-01 23:02:00,34.0,20.0,-100.00,NNW,342,10.0,16.0,57,0.00,,,0.00,0.000000,,2013-03-02 04:02:00,
2013-03-01 23:12:00,34.0,20.0,-100.00,NNW,342,10.0,16.0,57,0.00,,,0.00,0.000000,,2013-03-02 04:12:00,
2013-03-01 23:32:00,33.0,20.0,-100.00,North,350,9.0,18.0,58,0.00,,,0.00,0.000000,,2013-03-02 04:32:00,
2013-03-01 23:42:00,33.0,20.0,-100.00,North,350,9.0,18.0,58,0.00,,,0.00,0.000000,,2013-03-02 04:42:00,
2013-03-01 23:52:00,33.0,20.0,-100.00,North,350,9.0,18.0,58,0.00,,,0.00,0.000000,,2013-03-02 04:52:00,